CAPE
297 264 66 15 34 42 1 0 0 0 0 0 0 0 0 53 42 85 130 167 187 142 77 15 5 4 1 1 1 4 4 9 7
177 93 26 4 1 21 37 8 0 0 0 0 0 0 0 31 35 77 98 126 166 109 36 5 1 1 1 2 11 0 0 10 7
72 18 25 7 13 3 11 7 19 5 0 0 0 0 0 16 32 45 59 74 91 44 13 2 0 0 0 17 7 1 18 18 21
0 0 10 9 10 10 13 17 39 17 0 0 0 0 0 17 31 41 36 36 51 36 6 2 0 1 18 7 1 7 3 7 40
0 0 16 18 11 22 14 0 34 17 0 0 0 0 0 0 8 28 9 37 53 26 4 7 5 1 4 0 1 1 22 28 9
0 9 26 12 11 14 0 0 21 12 0 0 0 0 0 0 0 16 10 40 55 9 9 10 2 0 4 0 7 24 21 6 3
7 15 6 9 9 10 0 0 7 0 2 0 0 0 0 2 2 18 0 0 44 7 5 1 0 0 0 1 21 16 4 3 4
6 22 18 4 1 3 0 0 6 5 3 2 1 1 8 14 8 6 0 60 37 11 3 0 0 0 0 30 31 6 3 0 0
4 29 40 19 0 1 1 2 5 2 1 1 0 0 22 20 10 0 2 48 41 8 9 0 0 0 23 36 6 2 0 0 0
8 34 51 20 13 3 0 0 3 1 2 1 0 15 15 50 37 35 4 41 20 22 4 0 0 26 27 16 4 0 0 0 3
19 27 24 7 0 0 0 0 4 5 4 4 5 5 0 43 49 38 16 10 21 18 6 4 5 46 22 8 1 0 0 0 1
8 15 12 3 0 0 0 0 7 16 11 7 6 5 4 9 41 14 8 13 8 27 8 5 19 45 25 5 0 0 0 1 0
2 1 0 0 0 0 0 0 7 18 13 18 14 17 9 4 21 46 44 18 11 18 1 8 19 42 25 3 2 0 0 2 4
0 0 1 0 1 0 0 0 11 14 20 17 21 29 28 18 33 40 45 28 6 27 7 0 25 29 24 4 3 0 0 0 3
0 2 6 2 1 0 0 0 3 17 19 3 13 36 43 43 29 41 45 40 30 20 18 14 42 19 32 4 0 0 0 0 0
0 1 2 0 2 0 0 0 0 12 18 7 7 6 26 25 46 61 53 46 41 23 30 55 42 10 28 9 0 0 0 0 0
0 0 0 0 1 0 0 0 1 1 6 10 13 11 7 5 7 18 30 45 36 30 10 50 16 53 59 25 1 0 0 0 0
0 0 0 0 0 0 0 0 0 0 0 1 4 11 7 7 7 11 15 23 45 4 18 21 14 33 61 32 0 0 0 0 0
0 0 0 0 0 0 0 0 1 0 0 0 0 0 0 2 3 0 4 23 31 19 11 1 2 22 42 23 1 0 0 0 4
0 0 0 0 0 0 0 0 6 14 2 0 0 0 0 0 1 3 0 8 14 4 8 6 6 6 31 26 3 0 0 0 4
CIN
-12 -39 -179 -261 -271 -303 0 0 0 0 0 0 0 0 0 -233 -161 -153 -127 -106 -86 -116 -155 -5 0 0 0 -1 0 0 0 0 -1
-54 -112 -207 -4 0 0 0 -2 0 0 0 0 0 0 0 -1 -1 -182 -163 -137 -117 -143 -18 0 0 0 0 0 0 0 0 -1 -1
-167 -256 -213 -1 0 0 -4 -2 -1 -2 0 0 0 0 0 -1 -1 -171 -209 -183 -154 0 0 0 0 0 0 0 -1 -1 0 0 0
0 0 -172 -2 -1 -1 -9 0 -1 -6 0 0 0 0 0 0 0 0 0 -3 0 0 0 0 0 0 0 -1 0 -3 -4 -1 0
0 0 -4 -8 -12 -5 -5 0 -3 -5 0 0 0 0 0 0 0 -1 -2 -1 0 0 0 0 0 0 0 0 -1 -3 0 0 -1
0 -1 -12 -25 -15 -10 0 0 -6 -10 0 0 0 0 0 0 0 -1 -6 -1 0 0 0 0 0 0 -2 0 0 -1 0 -4 -4
-1 -6 -23 -24 -26 -8 0 0 -12 0 -1 0 0 0 0 -1 -1 -1 -1 0 0 0 0 0 0 0 0 -1 0 -1 -5 0 0
-1 -4 -17 -26 -22 -1 0 0 -1 -1 -1 -1 0 0 -1 -1 -1 -5 0 0 0 -3 0 0 0 0 0 0 0 -1 0 0 0
0 0 -1 0 0 -1 0 -1 -1 0 0 0 0 0 -1 -1 -1 0 -7 -3 0 -10 -1 0 0 0 0 0 0 0 0 0 0
-1 0 0 -3 -25 -1 0 0 -1 0 -1 -1 0 -1 -1 -1 0 -2 -11 -1 -1 -2 0 0 0 0 0 0 0 0 0 0 0
0 -1 -3 -42 0 0 0 0 0 -1 0 -1 -1 -1 0 0 -1 -2 -13 -15 -7 -4 0 -1 0 0 0 -5 0 0 0 0 0
0 -21 -40 -56 0 0 0 0 0 -1 -1 0 0 -1 -19 -6 -1 0 -17 -19 -15 -4 -10 0 0 0 0 -3 0 0 0 -1 0
0 -5 0 0 0 0 0 0 -1 -1 -1 -1 0 -1 -2 -13 -7 0 -1 -6 -29 -24 -4 -1 0 -1 -1 -1 0 0 0 0 0
0 0 -8 0 -8 -6 0 0 0 -1 -1 -7 -25 -3 0 -1 -2 -1 0 -2 -18 -15 -33 0 -3 -3 -1 -1 0 0 0 0 0
0 -1 -1 -2 -1 0 0 0 -1 -1 0 -29 -37 -10 0 0 0 -1 0 -2 -11 -25 -25 -17 -2 -2 -2 -4 0 0 0 0 0
0 -1 -1 0 0 0 0 0 0 -1 -1 -27 -38 -36 -11 -9 0 0 0 0 -5 -28 -15 0 -1 -14 -5 -9 0 0 0 0 0
0 0 -1 0 -1 0 0 0 0 -6 -6 -1 -2 -2 -17 -26 -31 -29 -4 -2 -6 -10 -21 -1 -23 -1 -7 -15 -26 0 0 0 0
0 0 0 0 0 0 0 0 0 0 0 -11 -1 0 -1 -1 -8 -22 -29 -11 0 -18 -18 -19 -14 -1 -1 -9 0 0 0 0 0
0 0 0 0 0 0 0 0 -1 0 0 0 0 0 0 -1 0 0 -18 -27 -11 -4 -17 -8 -32 -11 -4 -16 -27 0 0 0 -27
0 0 0 0 0 0 0 0 -1 -1 -1 0 0 0 0 0 0 -1 0 -16 -31 -45 -17 -23 -11 -33 -6 -10 -12 0 0 0 0
Wind_Speed
1 2 2 4 5 6 6 8 7 7 9 11 13 14 16 21 18 18 18 18 17 18 20 21 23 25 25 26 26 27 28 27 28
2 2 2 3 4 5 5 5 6 7 8 9 10 11 12 16 17 16 18 17 17 18 18 19 21 24 24 26 26 27 27 27 28
7 4 3 3 4 5 5 5 7 8 8 9 10 10 11 14 14 15 15 16 15 16 16 18 20 22 24 25 26 26 26 27 27
8 5 3 2 3 4 5 4 6 8 8 9 8 8 7 11 12 14 13 13 12 14 15 16 18 21 23 24 25 25 26 26 27
9 5 4 1 3 4 5 4 5 6 7 8 8 7 7 9 10 10 10 11 11 12 13 14 17 19 20 21 24 25 24 26 27
9 9 1 2 3 3 3 4 5 5 7 8 8 7 7 8 8 9 9 9 9 10 11 13 15 16 17 21 23 24 25 24 25
12 9 4 3 2 3 3 5 4 4 6 7 8 8 8 8 8 8 8 8 9 9 10 12 13 14 15 18 20 23 22 23 24
12 9 6 5 2 3 3 4 2 5 6 7 8 7 8 8 7 7 9 10 9 9 9 10 12 12 12 15 19 20 22 22 22
11 7 7 5 5 4 4 4 4 4 6 7 7 6 7 7 7 7 4 10 9 7 8 8 9 9 10 13 16 18 19 20 20
11 10 9 8 7 6 5 5 3 4 5 7 6 6 7 7 7 5 4 9 7 6 6 7 6 6 9 11 12 14 16 17 18
11 12 11 9 8 6 6 5 4 4 5 6 6 5 7 7 8 6 8 7 5 5 6 6 4 4 6 7 9 11 13 15 16
11 12 10 10 9 8 6 7 6 5 6 6 6 7 6 6 6 5 4 4 4 5 6 6 4 2 4 6 8 10 12 12 14
13 13 12 11 10 10 8 8 7 6 6 6 7 8 7 5 5 4 3 3 5 6 7 6 4 2 4 6 7 9 10 10 11
13 14 14 13 13 13 11 9 8 7 7 8 8 9 8 7 6 6 4 4 5 7 7 7 7 4 5 5 7 9 9 9 10
14 14 14 14 14 13 12 11 10 9 8 8 9 10 9 10 9 8 6 6 7 8 6 5 5 8 5 4 7 9 9 8 9
15 15 15 15 15 14 12 11 10 10 8 8 11 11 11 11 10 10 10 9 8 9 7 7 8 10 6 6 8 9 9 9 9
18 16 15 16 16 15 13 12 11 13 10 10 10 13 13 12 13 13 13 13 13 11 9 10 10 9 9 10 9 9 9 9 10
18 17 16 16 16 16 14 14 13 14 13 14 13 14 15 12 13 14 15 14 12 13 13 12 11 11 10 10 11 10 10 10 12
19 18 17 17 17 16 15 15 15 14 15 15 15 15 13 12 15 15 15 15 15 14 14 14 13 14 14 11 11 11 11 12 12
23 20 19 17 17 16 15 15 15 15 15 14 14 15 15 17 17 15 13 14 15 15 15 15 15 14 14 14 13 11 12 12 14
Wind_Direction
247 48 34 22 13 10 24 34 34 35 43 54 55 54 60 91 60 60 62 67 59 58 59 58 57 64 59 58 55 55 56 53 55
265 42 18 1 348 358 3 355 16 35 33 43 49 49 39 62 59 56 64 64 62 63 60 57 58 65 62 61 63 58 56 58 62
263 281 308 337 358 351 347 343 32 40 34 38 46 49 48 56 51 52 56 61 61 60 55 54 57 61 66 67 62 60 63 66 63
264 275 282 331 345 344 346 342 29 42 34 29 31 34 357 55 51 58 53 56 53 54 54 53 51 60 64 66 66 68 67 66 60
263 268 269 311 349 338 339 331 10 30 20 15 23 18 23 49 59 48 44 56 50 54 46 46 53 58 58 62 71 74 64 67 60
265 263 215 286 329 340 340 329 331 25 12 17 25 36 15 40 56 52 64 53 56 48 42 50 51 53 56 68 73 67 66 60 57
259 262 258 291 328 325 313 305 332 33 1 358 18 5 31 33 46 31 57 74 76 58 55 52 53 53 59 64 64 70 62 59 55
260 260 259 275 302 305 303 309 350 328 342 353 349 15 20 22 25 27 76 86 84 68 53 52 52 55 57 58 66 62 65 56 54
259 253 254 262 274 285 287 298 319 345 348 352 356 19 9 10 26 51 22 91 89 60 53 43 39 54 51 62 58 60 58 53 52
254 253 256 261 268 278 277 289 307 332 347 346 357 9 353 13 17 21 45 102 80 55 21 12 34 36 61 55 51 48 48 43 48
254 252 255 255 264 276 277 280 289 310 326 333 342 348 342 351 359 34 89 86 65 19 356 356 18 46 51 38 32 34 37 41 46
248 256 251 255 261 273 274 277 282 293 306 318 328 328 333 335 11 61 49 51 24 350 335 337 331 30 32 12 18 26 30 33 45
247 250 251 255 261 269 270 268 272 279 295 306 310 317 315 322 318 3 30 3 351 346 327 316 300 346 347 345 360 10 18 21 28
249 248 249 254 262 266 264 263 265 269 285 297 303 307 313 306 301 303 324 331 325 325 327 300 291 296 321 336 343 350 0 6 13
250 248 249 249 259 263 258 252 261 265 277 291 298 306 308 305 294 290 296 297 301 310 317 312 295 294 301 311 330 336 341 348 356
248 249 247 248 254 257 251 250 250 262 271 280 294 300 302 300 298 296 294 292 291 294 301 297 298 293 283 290 316 328 336 334 338
244 246 245 246 253 254 248 248 248 265 261 270 278 286 293 297 293 289 289 287 289 289 284 291 289 295 286 287 298 312 320 326 327
241 243 242 245 251 253 249 245 245 257 258 269 284 288 289 289 292 287 286 286 286 282 286 286 280 290 286 286 290 298 309 312 316
241 244 243 244 250 253 252 249 248 252 255 267 275 294 300 292 299 289 283 285 283 284 282 282 281 286 286 287 286 289 296 304 308
240 245 243 243 248 251 251 249 246 250 256 255 267 279 290 293 296 300 289 289 285 286 281 280 282 282 284 285 283 281 287 296 304